Regional Weather Roundup
Issued by NWS

Home | Current Version | Previous Version | Graphics & Text | Print | Product List | Glossary On
Versions: 1 2 3 4 5 6 7 8 9 10 11 12 13 14 15 16 17 18 19 20 21 22 23 24 25 26 27 28 29 30 31 32 33 34 35 36 37 38 39 40 41 42 43 44 45 46 47 48 49 50
000
ASUS44 KMEG 060510
RWRTN
TENNESSEE HOURLY STATE WEATHER ROUNDUP
NATIONAL WEATHER SERVICE MEMPHIS TN
1100 PM CST THU MAR 05 2015

TNZ002-004-019-021-049-052-054-088>092-060600-
WEST TENNESSEE

CITY           SKY/WX    TMP DP  RH WIND       PRES   REMARKS
MEMPHIS INTL   PTCLDY    21  11  65 N3        30.59S
NWS MEMPHIS      N/A     15 N/A N/A MISG        N/A
JACKSON        PTCLDY    16   5  62 NE7       30.58S WCI   6
DYERSBURG      PTCLDY    16  -2  45 NE6       30.62S WCI   7
UNION CITY     CLEAR     14   5  67 CALM      30.59S
PARIS          CLEAR      3   1  92 NE3       30.58S
LEXINGTON      CLEAR     18   5  57 N3        30.56S
SAVANNAH       CLEAR     19  10  68 N7        30.56S WCI  10
$$

TNZ008-025-027-028-033-062-065-066-060600-
NORTH MIDDLE TENNESSEE

CITY           SKY/WX    TMP DP  RH WIND       PRES   REMARKS
NASHVILLE      PTCLDY    16   7  67 N9        30.57R WCI   4
CLARKSVILLE    PTCLDY    12   4  70 NW6       30.59R WCI   3
SMYRNA         PTCLDY    17   9  71 CALM      30.57S
COOKEVILLE     CLEAR     18  14  86 CALM      30.47F
CROSSVILLE     PTCLDY    16  10  77 NE10      30.41F WCI   4
$$

TNZ061-075-076-078-094-096-097-060600-
SOUTH MIDDLE TENNESSEE

CITY           SKY/WX    TMP DP  RH WIND       PRES   REMARKS
FAYETTEVILLE   CLEAR     18  12  79 N8          N/A  WCI   7
TULLAHOMA      CLEAR     16  12  86 N8          N/A  WCI   5
WINCHESTER     MOCLDY    19  12  73 NE15G23   30.48S WCI   5
MCMINNVILLE    PTCLDY    19  14  79 N8        30.48S WCI   9
COLUMBIA         N/A     18  12  79 N6        30.53S WCI   9
SHELBYVILLE    MOCLDY    18  12  79 N6        30.52R WCI   9
$$

TNZ017-018-042-046-047-060600-
NORTHEAST TENNESSEE

CITY           SKY/WX    TMP DP  RH WIND       PRES   REMARKS
TRI CITIES     CLOUDY    21  15  78 N7        30.41S WCI  12
ELIZABETHTON   FLURRIES  19  12  73 VRB7      30.39S WCI  10
$$

TNZ012-013-036-069-073-074-060600-
CENTRAL EAST TENNESSEE

CITY           SKY/WX    TMP DP  RH WIND       PRES   REMARKS
KNOXVILLE      CLOUDY    22  17  81 N10       30.44S WCI  11
OAK RIDGE      PTCLDY    20  13  74 VRB6      30.48R WCI  12
GATLINBURG     CLOUDY    25  21  86 N5        30.43S WCI  19
MORRISTOWN     MOCLDY    21  18  86 NE6       30.42S WCI  14
$$

TNZ083-085-099-060600-
SOUTHEAST TENNESSEE

CITY           SKY/WX    TMP DP  RH WIND       PRES   REMARKS
CHATTANOOGA    PTCLDY    24  15  68 N10       30.45S WCI  14
$$

SKY/WX REPORTED AS FAIR MEANS FEW OR NO CLOUDS BELOW
12 THOUSAND FEET.




USA.gov is the U.S. government's official web portal to all federal, state and local government web resources and services.